Regional Weather Roundup
Issued by NWS Grand Forks, ND

Home | Current Version | Previous Version | Text Only | Print | Product List | Glossary On
Versions: 1 2 3 4 5 6 7 8 9 10 11 12 13 14 15 16 17 18 19 20 21 22 23 24 25 26 27 28 29 30 31 32 33 34 35 36 37 38 39 40 41 42 43 44 45 46 47 48 49 50
000
ASUS43 KFGF 042131
RWRFGF
PRAIRIE TO PINES  WEATHER ROUNDUP
NATIONAL WEATHER SERVICE EASTERN NORTH DAKOTA/GRAND FORKS ND
400 PM CDT SAT JUL 04 2015

 **SATELLITE DATA USED TO AUGMENT SKY COVER AT AUTOMATED STATIONS**
 *****  WEATHER ACROSS EASTERN NORTH DAKOTA  *****

CITY           SKY/WX    TMP DP  RH WIND       PRES   REMARKS
GRAND FORKS    MOSUNNY   86  67  52 S16G23    29.76F HAZE
GRAND FRKS AFB SUNNY     85  69  57 S16       29.77F
GRAND FRKS NWS   N/A     86 N/A N/A S12         N/A
DEVILS LAKE    SUNNY     88  64  45 S16       29.73F
FARGO          MOSUNNY   83  67  58 SE15G24   29.81F
WAHPETON ARPT  CLEAR     82  63  51 S14       29.83F
$$

 ***** WEATHER ACROSS CENTRAL AND WESTERN NORTH DAKOTA  *****

CITY           SKY/WX    TMP DP  RH WIND       PRES   REMARKS
BISMARCK       SUNNY     88  71  57 S12       29.75F HX  94
MINOT          SUNNY     88  66  48 S14G22    29.70F HX  90
JAMESTOWN      SUNNY     86  65  49 S14       29.78F
MINOT AFB      SUNNY     90  71  53 S15       29.68F HX  96
GARRISON         N/A     86  69  56 S13       29.72F HX  90
WILLISTON      SUNNY     97  53  22 S12G17    29.64F HX  94
DICKINSON      SUNNY     88  65  46 SW12      29.75F HX  90
HETTINGER      SUNNY     87  62  43 SW3       29.80S
$$

 *****  OTHER AIRPORT OBSERVATIONS IN OUR AREA  *****

CITY           SKY/WX    TMP DP  RH WIND       PRES   REMARKS
WALHALLA       FAIR      86  66  51 MISG      29.72F
GRAFTON AIRPOR FAIR      86  68  54 S15G22    29.76S HAZE
VALLEY CITY AR FAIR      84  66  54 S17       29.79F
CANDO          FAIR      86  66  51 S17G24    29.73F
CAVALIER APRT  FAIR      86  66  51 S16       29.73F HAZE
GWINNER        FAIR      88  66  48 S14       29.81F HX  90
SHEYENNE NWR     N/A     85  67  54 S13       29.95
ROLLA            N/A     82  66  57 SW17G23   29.74F
 ***** THE ABOVE OBSERVATIONS ARE NON NWS ARE NOT QUALITY
       CONTROLLED AND MAY MIS-REPORT RAIN FOR SNOW...
$$

  *****  WEATHER ACROSS NORTHERN MINNESOTA  *****

CITY           SKY/WX    TMP DP  RH WIND       PRES   REMARKS
FLAG ISLAND    SUNNY     75  66  73 S9        29.80F HAZE
WARROAD        SUNNY     82  64  54 S10G18    29.81F HAZE
ROSEAU         SUNNY     82  68  61 S14       29.80F HAZE
HALLOCK        SUNNY     82  68  61 S14G22    29.75S HAZE
THF RVR FALLS  SUNNY     82  66  57 S13       29.81F
BAUDETTE       SUNNY     80  59  48 S15       29.84S HAZE
WASKISH        SUNNY     81  61  50 SE9G16    29.85F
CROOKSTON      SUNNY     84  68  58 S17       29.80F
$$
  *****  WEATHER ACROSS CENTRAL AND WEST MINNESOTA  *****

CITY           SKY/WX    TMP DP  RH WIND       PRES   REMARKS
FOSSTON        SUNNY     81  64  57 S10G17    29.84F HAZE
BEMIDJI        SUNNY     82  62  50 S13       29.87F HAZE
PARK RAPIDS    CLOUDY    84  61  45 S14       29.88F HAZE
ELBOW LAKE     FAIR      81  66  60 S13       29.87F
WADENA         MOSUNNY   82  64  54 S12       29.88F HAZE
DETROIT LAKES  MOSUNNY   82  64  54 S13G18    29.88S
MOORHEAD       SUNNY     82  66  57 S13G21    29.82F
FERGUS FALLS   SUNNY     82  66  57 S16       29.85F
MORRIS MN      MOSUNNY   84  63  48 S16       29.87S
STAPLES        SUNNY     82  61  47 S10       29.89F HAZE
$$
  *****  WEATHER ELSEWHERE ACROSS MINNESOTA  *****

CITY           SKY/WX    TMP DP  RH WIND       PRES   REMARKS
DULUTH         SUNNY     73  60  63 SE10      29.95S
INTRNTL FALLS  SUNNY     81  58  45 SW10      29.87F
ELY            MOSUNNY   79  55  44 S6        29.92S
CLOQUET        SUNNY     75  57  53 E8        29.94S
WHEATON        SUNNY     81  64  57 S13       29.86F
BRAINERD       CLOUDY    83  61  47 S9        29.91F HAZE
HIBBING        SUNNY     81  57  43 SE12      29.91F
ALEXANDRIA     MOSUNNY   82  65  56 S12       29.91F
SAINT CLOUD    MOSUNNY   85  64  49 S9        29.90F HAZE
MINNEAPOLIS    PTSUNNY   85  62  46 S9        29.92F HAZE
$$

  *****  WEATHER ACROSS SOUTH DAKOTA  *****

CITY           SKY/WX    TMP DP  RH WIND       PRES   REMARKS
SIOUX FALLS    CLOUDY    82  65  56 S9        29.91F
BROOKINGS      MOSUNNY   81  64  57 S14G23    29.91F
WATERTOWN      MOSUNNY   84  65  52 S16       29.88S
HURON          SUNNY     85  65  51 S17G26    29.83F
SISSETON         N/A     87  64  46 SW12      29.83F
ABERDEEN       SUNNY     86  68  54 S13       29.81F
MITCHELL       SUNNY     84  65  52 S16G25    29.86F
PIERRE         MOSUNNY   90  66  45 S17       29.76F HX  92
MOBRIDGE       MOSUNNY   88  71  57 SE15      29.75F HX  94
RAPID CITY     SUNNY     88  64  44 VRB5      29.83F
$$

  *****  SOME WEATHER IN NEARBY STATES *****

CITY           SKY/WX    TMP DP  RH WIND       PRES   REMARKS
GLASGOW MT     SUNNY     94  52  24 NE13G21   29.70R HX  91
GREAT FALLS MT SUNNY     85  51  31 VRB6      29.87F
CHEYENNE WY    SUNNY     90  47  22 NE9       30.03F
SCOTTSBLUFF NE MOSUNNY   95  52  23 SE10G16   29.87F HX  92
OMAHA NE       PTSUNNY   82  60  47 S15       29.96F
DES MOINES IA  CLOUDY    82  58  43 S6        29.98F
DAVENPORT IA   SUNNY     79  62  56 S6        30.01S
CHICAGO IL     MOSUNNY   81  53  37 CALM      29.99S
EAU CLAIRE WI  MOSUNNY   82  62  50 SW8       29.94S HAZE
LA CROSSE WI   SUNNY     83  64  52 S9        29.95S
$$

  *****  SOME NATIONAL WEATHER *****

CITY           SKY/WX    TMP DP  RH WIND       PRES   REMARKS
LA GUARDIA NY  PTSUNNY   74  58  57 E10       29.94S
RALEIGH NC     PTSUNNY   86  72  62 SW10      29.95F HX  92
ATLANTA GA     PTSUNNY   83  67  58 SW5       30.06F
NEW ORLEANS LA CLOUDY    84  72  67 W12       30.04R
OKLAHOMA CITY  MOSUNNY   89  72  56 S9        29.93F HX  96
ALBUQUERQUE NM PTSUNNY   90  50  25 VRB5      30.06F
SALT LAKE CITY PTSUNNY   96  50  20 CALM      29.88F HX  93
LOS ANGELES CA MOSUNNY   70  60  70 SW9       29.91S
BOISE ID       PTSUNNY   96  42  15 W9        29.82F HX  92
SEATTLE WA     MOSUNNY   88  46  23 N9        29.86F
$$

*** WEATHER ACROSS MANITOBA...SASKATCHEWAN AND ONTARIO ***
                ***ONTARIO***

CITY           SKY/WX    TMP DP  RH WIND       PRES   REMARKS
GERALDTON      CLOUDY    73  50  43 VRB9      29.95F
THUNDER BAY    CLOUDY    73  57  56 S12       29.96S
SIOUX LOOKOUT  CLOUDY    77  57  50 SW12      29.86F
TORONTO        MOSUNNY   75  52  43 SE10      29.94F
BIG TROUT LK   MOSUNNY   70  55  60 SE9       29.73F
PICKLE LAKE    CLOUDY    77  54  44 SW13G22   29.83F
DRYDEN         SUNNY     77  54  44 S18G24    29.85F
KENORA         MOSUNNY   79  61  53 S15G21    29.84S
$$
                *** MANITOBA***

CITY           SKY/WX    TMP DP  RH WIND       PRES   REMARKS
BRANDON        LGT RAIN  79  70  73 SW14      29.66F SMOKE
DAUPHIN        PTSUNNY   72  64  78 W10       29.69F
ISLAND LAKE    LGT RAIN  70  66  88 S5        29.66R
PILOT MOUND      N/A     82  68  61 S17G23      N/A
THE PAS          N/A     70  57  64 W9        29.72R SMOKE
THOMPSON       CLOUDY    68  57  68 W8        29.60S SMOKE
WINNIPEG       CLOUDY    82  72  69 S18G29    29.70F SMOKE
LYNN LAKE      PTSUNNY   64  57  77 N16       29.66R
CHURCHILL      CLOUDY    43  41  93 E21       29.74R FOG
GILLAM         CLOUDY    68  63  83 S7        29.57  SMOKE
$$
                ***SASKATCHEWAN***

CITY           SKY/WX    TMP DP  RH WIND       PRES   REMARKS
ESTEVAN        PTSUNNY   75  68  78 N7        29.72  SMOKE
KINDERSLEY     MOSUNNY   75  50  41 N14       29.87S
LLOYDMINSTER   PTSUNNY   73  41  31 W18G25    29.88S
PRINCE ALBERT  SMOKE     68  48  49 N6        29.82R VSB 1/2
REGINA         MOSUNNY   75  61  60 N8        29.80R
YORKTON        SUNNY     70  63  78 W7        29.73F
N. BATTLEFORD  CLOUDY    73  46  38 N14       29.88R HAZE
LA RONGE       SMOKE     72  45  37 W9        29.75  VSB 1
SASKATOON      SMOKE     77  57  50 N16G24    29.83R VSB 1
SWIFT CURRENT  PTSUNNY   77  52  41 N10G17    29.86R
$$
NOTE: THESE ARE AUTOMATED STATIONS WITH LIMITED QUALITY CONTROL
      "FAIR" INDICATES FEW OR NO CLOUDS BELOW 12,000 FEET WITH NO
      SIGNIFICANT WEATHER AND/OR OBSTRUCTIONS TO VISIBILITY.
      SKY/WX - SKY CONDITION AND SIGNIFICANT WEATHER.
      TMP - AIR TEMPERATURE.    DP   - DEWPOINT TEMPERATURE.
      RH  - RELATIVE HUMIDITY.  PRES - PRESSURE.
      HX  - HEAT INDEX.         WCI  - WIND CHILL INDEX.
$


USA.gov is the U.S. government's official web portal to all federal, state and local government web resources and services.